Baton Rouge, LA

1:02 PM CDT on October 19, 2019 (GMT -0500)
Baton Rouge Metro-Ryan

Weather History for KBTR - August, 2019

Change the Weather History Date:

Friday, August 9, 2019

  Actual Average Record
Temperature  
Mean Temperature 87 °F 83 °F  
Max Temperature 95 °F 93 °F 102 °F (1962)
Min Temperature 79 °F 74 °F 60 °F (1989)
Degree Days  
Heating Degree Days 0 0  
Month to date heating degree days 0 0  
Since 1 June heating degree days 0 0  
Since 1 July heating degree days 0 0  
Cooling Degree Days 22 18  
Month to date cooling degree days 178 162  
Year to date cooling degree days 1912 1767  
Since 1 June cooling degree days 1241 1202  
Growing Degree Days 36 (Base 50)    
Moisture  
Dew Point 76 °F    
Average Humidity 72    
Maximum Humidity 94    
Minimum Humidity 49    
Precipitation  
Precipitation 0.00 in 0.20 in 2.24 in (1944)
Month to date precipitation 0.42 1.72  
Year to date precipitation 41.84 37.61  
Snow  
Snow 0.00 in - - ()
Month to date snowfall 0.0  
Since 1 June snowfall 0.0  
Since 1 July snowfall 0.0  
Snow Depth 0.00 in    
Sea Level Pressure  
Sea Level Pressure 29.96 in    
Wind  
Wind Speed 8 mph (WSW)    
Max Wind Speed 14 mph    
Max Gust Speed 20 mph    
Visibility 10 miles    
Events      
T = Trace of Precipitation, MM = Missing Value Source: NWS Daily Summary

Daily Weather History Graph

Daily Weather History Graph

Search for Another Location

Airport or City:

Astronomy

Aug. 09, 2019 Rise Set
Actual Time 6:27 AM CDT 7:52 PM CDT
Civil Twilight 6:01 AM CDT 8:17 PM CDT
Nautical Twilight 5:31 AM CDT 8:48 PM CDT
Astronomical Twilight 4:59 AM CDT 9:20 PM CDT
Moon 3:28 PM CDT (8/9) 1:27 AM CDT (8/9)
Length of Visible Light 14h 16m
Length of Day
13h 24m
Waxing Gibbous, 70% of the Moon is Illuminated
Aug 9
Waxing Gibbous
Aug 15
Full
Aug 23
Last Quarter
Aug 30
New
Sep 5
First Quarter

Hourly Weather History & Observations

Time (CDT) Temp. Heat Index Dew Point Humidity Pressure Visibility Wind Dir Wind Speed Gust Speed Precip Events Conditions
12:53 AM 80.1 °F 85.4 °F 75.9 °F 87% 29.96 in 10.0 mi Calm Calm - N/A   Clear
1:53 AM 80.1 °F 85.1 °F 75.0 °F 85% 29.94 in 10.0 mi SW 4.6 mph - N/A   Clear
2:53 AM 80.1 °F 85.4 °F 75.9 °F 87% 29.94 in 10.0 mi WNW 3.5 mph - N/A   Clear
3:53 AM 79.0 °F - 75.9 °F 90% 29.94 in 10.0 mi SW 4.6 mph - N/A   Clear
4:53 AM 80.1 °F 85.8 °F 77.0 °F 90% 29.96 in 8.0 mi WSW 6.9 mph - N/A   Partly Cloudy
5:53 AM 80.1 °F 86.4 °F 78.1 °F 94% 29.96 in 8.0 mi WSW 5.8 mph - N/A   Partly Cloudy
6:53 AM 80.1 °F 86.4 °F 78.1 °F 94% 29.97 in 6.0 mi West 5.8 mph - N/A   Clear
7:53 AM 82.9 °F 92.8 °F 78.1 °F 85% 29.99 in 10.0 mi WSW 8.1 mph - N/A   Clear
8:53 AM 86.0 °F 98.3 °F 78.1 °F 77% 30.01 in 10.0 mi WSW 9.2 mph - N/A   Scattered Clouds
9:53 AM 87.1 °F 98.8 °F 77.0 °F 72% 30.01 in 10.0 mi WSW 10.4 mph - N/A   Scattered Clouds
10:53 AM 89.1 °F 100.2 °F 75.9 °F 65% 30.01 in 10.0 mi WSW 11.5 mph - N/A   Partly Cloudy
11:53 AM 91.0 °F 102.9 °F 75.9 °F 61% 30.00 in 10.0 mi WSW 9.2 mph - N/A   Scattered Clouds
12:53 PM 91.9 °F 100.7 °F 73.0 °F 54% 29.99 in 10.0 mi West 8.1 mph 16.1 mph N/A   Scattered Clouds
1:53 PM 93.0 °F 103.2 °F 73.9 °F 54% 29.98 in 10.0 mi West 6.9 mph - N/A   Scattered Clouds
2:53 PM 93.0 °F 100.7 °F 72.0 °F 50% 29.95 in 10.0 mi West 8.1 mph - N/A   Partly Cloudy
3:53 PM 93.9 °F 104.0 °F 73.9 °F 52% 29.93 in 10.0 mi WNW 4.6 mph - N/A   Partly Cloudy
4:53 PM 91.9 °F 100.7 °F 73.0 °F 54% 29.92 in 10.0 mi West 10.4 mph - N/A   Scattered Clouds
5:53 PM 93.0 °F 103.2 °F 73.9 °F 54% 29.92 in 10.0 mi WSW 6.9 mph - N/A   Clear
6:53 PM 91.0 °F 100.4 °F 73.9 °F 57% 29.94 in 10.0 mi WSW 9.2 mph - N/A   Clear
7:53 PM 88.0 °F 97.5 °F 75.0 °F 65% 29.94 in 10.0 mi SW 8.1 mph - N/A   Clear
8:53 PM 86.0 °F 96.0 °F 75.9 °F 72% 29.94 in 10.0 mi SW 5.8 mph - N/A   Clear
9:53 PM 84.9 °F 94.1 °F 75.9 °F 74% 29.95 in 10.0 mi SSW 8.1 mph - N/A   Partly Cloudy
10:53 PM 84.9 °F 94.1 °F 75.9 °F 74% 29.95 in 10.0 mi SW 10.4 mph - N/A   Clear
11:53 PM 82.9 °F 90.8 °F 75.9 °F 79% 29.95 in 10.0 mi SW 10.4 mph - N/A   Clear